[[{"header":{"parameterUnit":"m.s-1","parameterCategory":1,"la1":30.2991,"la2":30.254,"lo1":-89.0895,"lo2":-89.0444,"dy":0.0017,"dx":0.0017,"nx":28,"ny":28,"refTime":"2025-07-25T21:00:00:Z","depth":0,"parameterNumber":2,"parameterNumberName":"U-component_of_WINDS"},"data":[0,0,0,0,0,0,0,0,0,0,0,0,0,0,0,0,0,0,0,0,0,0,0,0,0,0,0,0,0,0,0,0,0,0,0,0,0,0,0,0,0,0,0,0,0,0,0,0,0,0,0,0,0,0,0,0,0,0,-1.008,-1.0081,0,-1.0133,-1.0134,-1.0135,-1.0138,-1.0137,-1.0137,-1.0136,-1.0192,-1.0194,-1.0196,0,0,0,0,0,0,0,0,0,0,0,0,0,-0.9984,-0.9986,-1.008,-1.0081,-1.0082,-1.0133,-1.0134,-1.0135,-1.0138,-1.0137,-1.0137,-1.0136,-1.0192,-1.0194,-1.0196,0,0,0,0,0,0,0,0,0,0,0,0,0,-1.0031,-0.9987,-1.008,-1.009,-1.0091,-1.0133,-1.0134,-1.0135,-1.0138,-1.0137,-1.0136,-1.0135,-1.0191,-1.0194,-1.0197,-1.0234,0,0,-1.0206,-1.0208,0,0,0,0,0,0,0,0,-1.0028,-1.0034,-1.0087,-1.0089,-1.0091,-1.0128,-1.0121,-1.0168,-1.0138,-1.012,-1.0136,-1.0135,-1.0172,-1.0176,-1.0188,-1.0237,-1.0239,-1.0206,-1.0208,-1.021,-1.0211,0,0,0,0,0,0,0,-1.0025,-1.0032,-1.0101,-1.0088,-1.009,-1.0092,-1.0097,-1.013,-1.0151,-1.0122,-1.0122,-1.0128,-1.0172,-1.0185,-1.019,-1.024,-1.0206,-1.0209,-1.0211,-1.0212,-1.0323,-1.0324,0,0,0,0,0,0,-1.002,-1.0029,-1.01,-1.0103,-1.0056,-1.0094,-1.01,-1.0117,-1.015,-1.0154,-1.0129,-1.0128,-1.018,-1.0186,-1.0192,-1.0238,-1.021,-1.0213,-1.0214,-1.0322,-1.0323,-1.0324,0,0,0,0,0,0,-1.0017,-1.0026,-1.0098,-1.0066,-1.0076,-1.0097,-1.0115,-1.0119,-1.0131,-1.0156,-1.0159,-1.0138,-1.018,-1.0187,-1.0224,-1.024,-1.0214,-1.0217,-1.032,-1.0322,-1.0324,-1.0332,0,0,0,0,0,0,-1.0015,-1.0025,-1.0039,-1.0067,-1.0077,-1.0128,-1.0116,-1.012,-1.0137,-1.0136,-1.0165,-1.0169,-1.018,-1.0219,-1.0227,-1.0244,-1.0219,-1.0319,-1.0321,-1.0323,-1.033,-1.0333,-1.0336,0,0,0,0,0,-1.0011,-1.0039,-1.0039,-1.0048,-1.0095,-1.0129,-1.0135,-1.0146,-1.0138,-1.0152,-1.0168,-1.0168,-1.0237,-1.0223,-1.0231,-1.025,-1.0318,-1.0321,-1.0323,-1.0329,-1.0333,-1.0336,0,0,0,0,0,0,-1.0014,-1.0043,-1.0044,-1.0081,-1.0103,-1.0129,-1.0148,-1.015,-1.0175,-1.0173,-1.0186,-1.0193,-1.0229,-1.0243,-1.0227,-1.0288,-1.0277,-1.0281,-1.0278,-1.0282,-1.0285,-1.0282,-1.0222,0,0,0,0,0,-1.0018,-1.0043,-1.0068,-1.0098,-1.0109,-1.0127,-1.0142,-1.0149,-1.0172,-1.0181,-1.0199,-1.0222,-1.0249,-1.0266,-1.0292,-1.0332,-1.0339,-1.0349,-1.0352,-1.0355,-1.0358,-1.0382,-1.0387,-1.0332,-1.0332,-1.0332,0,0,-1.0029,-1.0048,-1.0063,-1.0099,-1.0117,-1.0143,-1.0134,-1.0162,-1.0182,-1.0185,-1.0221,-1.0235,-1.0261,-1.03,-1.0318,-1.0313,-1.0375,-1.0358,-1.0359,-1.0362,-1.0385,-1.039,-1.0395,-1.0334,-1.0334,-1.0333,0,0,-1.0061,-1.0077,-1.0105,-1.0123,-1.0149,-1.0161,-1.0167,-1.0194,-1.0204,-1.0239,-1.0243,-1.0267,-1.0312,-1.0331,-1.0347,-1.0387,-1.0389,-1.0395,-1.0412,-1.0434,-1.0438,-1.0442,-1.0458,-1.0463,-1.0398,-1.0398,-1.0398,0,-1.0071,-1.011,-1.012,-1.0148,-1.0164,-1.0168,-1.0197,-1.0214,-1.0247,-1.0259,-1.0252,-1.031,-1.0328,-1.0372,-1.0381,-1.0393,-1.0402,-1.0392,-1.0437,-1.0441,-1.0445,-1.0459,-1.0465,-1.0399,-1.0399,-1.0399,-1.0399,0,-1.0121,-1.0148,-1.0168,-1.02,-1.0218,-1.0247,-1.0262,-1.028,-1.0285,-1.0297,-1.0334,-1.0356,-1.0387,-1.0397,-1.0402,-1.0442,-1.0438,-1.0434,-1.0423,-1.045,-1.0465,-1.047,-1.04,-1.04,-1.04,-1.0399,0,0,-1.0157,-1.0194,-1.0201,-1.0216,-1.0245,-1.0267,-1.0296,-1.0325,-1.0341,-1.0364,-1.0389,-1.0428,-1.0425,-1.0442,-1.045,-1.0469,-1.0501,-1.0463,-1.0464,-1.047,-1.0547,-1.0551,-1.0557,-1.0502,-1.0503,-1.0504,-1.0545,0,-1.0194,-1.0245,-1.0255,-1.0299,-1.0325,-1.0329,-1.0354,-1.0375,-1.0388,-1.0412,-1.0426,-1.0454,-1.0446,-1.0457,-1.0477,-1.0493,-1.0517,-1.049,-1.0527,-1.0528,-1.0521,-1.0564,-1.0568,-1.0606,-1.0551,-1.0552,-1.0552,0,-1.0244,-1.0268,-1.0315,-1.0341,-1.0352,-1.0375,-1.0403,-1.0426,-1.045,-1.0458,-1.0478,-1.0483,-1.0514,-1.05,-1.0544,-1.0526,-1.0541,-1.0551,-1.0553,-1.0558,-1.0543,-1.0571,-1.0619,-1.0625,-1.0561,-1.056,-1.056,0,-1.0267,-1.0311,-1.0345,-1.0357,-1.0388,-1.0404,-1.0418,-1.0442,-1.0459,-1.0484,-1.0495,-1.0524,-1.054,-1.0562,-1.0575,-1.0563,-1.0618,-1.0605,-1.0626,-1.0626,-1.0639,-1.0638,-1.069,-1.0647,-1.0646,-1.0646,-1.0646,0,-1.0308,-1.0337,-1.0356,-1.0377,-1.041,-1.0421,-1.0454,-1.0467,-1.0488,-1.0513,-1.0517,-1.054,-1.0556,-1.0581,-1.0592,-1.0627,-1.0634,-1.0642,-1.0644,-1.0642,-1.0641,-1.0653,-1.0651,-1.0648,-1.0648,-1.0647,-1.0647,0,-1.034,-1.0354,-1.0391,-1.0417,-1.0425,-1.0448,-1.0471,-1.0492,-1.0504,-1.0535,-1.0543,-1.0563,-1.0593,-1.0608,-1.0646,-1.0653,-1.0693,-1.0693,-1.0685,-1.0686,-1.0707,-1.0705,-1.077,-1.078,-1.0728,-1.0729,-1.0729,0,-1.0366,-1.0388,-1.0417,-1.0433,-1.0447,-1.0473,-1.0491,-1.0503,-1.0522,-1.0551,-1.0569,-1.0599,-1.0624,-1.0672,-1.0691,-1.072,-1.0722,-1.0742,-1.0726,-1.0723,-1.0724,-1.0723,-1.0725,-1.0746,-1.0746,-1.0746,-1.0747,0,-1.0411,-1.0416,-1.0441,-1.0469,-1.0489,-1.0512,-1.0534,-1.0547,-1.0563,-1.0583,-1.0614,-1.0633,-1.0672,-1.0702,-1.0733,-1.0748,-1.0751,-1.0751,-1.0758,-1.0757,-1.0751,-1.0756,-1.0694,-1.075,-1.075,-1.075,-1.0749,-1.0749,-1.0441,-1.0462,-1.0485,-1.0513,-1.053,-1.0551,-1.0572,-1.0587,-1.0613,-1.0644,-1.065,-1.0683,-1.0707,-1.0748,-1.0764,-1.0791,-1.0786,-1.0796,-1.0798,-1.0801,-1.0802,-1.0746,-1.0796,-1.0796,-1.0796,-1.0796,-1.0796,0,-1.0488,-1.0503,-1.0528,-1.0558,-1.058,-1.058,-1.0604,-1.0623,-1.0652,-1.0674,-1.0698,-1.0734,-1.0763,-1.0784,-1.0814,-1.0831,-1.0833,-1.0839,-1.0839,-1.0842,-1.0804,-1.0796,-1.0837,-1.0837,-1.0837,-1.0837,-1.0837,-1.0837,-1.0514,-1.0549,-1.0557,-1.0601,-1.0616,-1.0648,-1.0662,-1.0682,-1.0699,-1.0739,-1.0763,-1.0776,-1.0797,-1.0829,-1.0857,-1.0862,-1.0874,-1.0879,-1.0885,-1.0849,-1.0845,-1.0841,-1.0833,-1.0881,-1.0881,-1.0921,-1.0921,-1.0922]},{"header":{"parameterUnit":"m.s-1","parameterCategory":1,"la1":30.2991,"la2":30.254,"lo1":-89.0895,"lo2":-89.0444,"dy":0.0017,"dx":0.0017,"nx":28,"ny":28,"refTime":"2025-07-25T21:00:00:Z","depth":0,"parameterNumber":3,"parameterNumberName":"V-component_of_WINDS"},"data":[0,0,0,0,0,0,0,0,0,0,0,0,0,0,0,0,0,0,0,0,0,0,0,0,0,0,0,0,0,0,0,0,0,0,0,0,0,0,0,0,0,0,0,0,0,0,0,0,0,0,0,0,0,0,0,0,0,0,5.1459,5.1459,0,5.1502,5.1502,5.1503,5.1423,5.142,5.1418,5.1415,5.1456,5.1459,5.1463,0,0,0,0,0,0,0,0,0,0,0,0,0,5.1302,5.1306,5.1459,5.1459,5.146,5.1502,5.1502,5.1503,5.1423,5.142,5.1417,5.1414,5.1454,5.1459,5.1463,0,0,0,0,0,0,0,0,0,0,0,0,0,5.136,5.1307,5.1459,5.1425,5.1423,5.1502,5.1502,5.1503,5.1424,5.142,5.1416,5.1412,5.1453,5.1458,5.1463,5.1576,0,0,5.148,5.1482,0,0,0,0,0,0,0,0,5.1357,5.1366,5.143,5.1428,5.1425,5.1453,5.1462,5.1527,5.1425,5.1424,5.1415,5.1411,5.1458,5.1462,5.1479,5.1578,5.1579,5.148,5.1483,5.1486,5.1487,0,0,0,0,0,0,0,5.1353,5.1364,5.1476,5.1431,5.1428,5.1406,5.141,5.1474,5.1462,5.1423,5.1418,5.1424,5.1456,5.1474,5.1479,5.158,5.148,5.1485,5.1488,5.149,5.1769,5.1773,0,0,0,0,0,0,5.1354,5.1361,5.1474,5.1477,5.1381,5.1413,5.1417,5.1448,5.1461,5.146,5.1427,5.142,5.1467,5.1473,5.1481,5.161,5.1486,5.1491,5.1494,5.1765,5.177,5.1774,0,0,0,0,0,0,5.1351,5.1365,5.1472,5.1417,5.143,5.1419,5.1455,5.1451,5.1469,5.1464,5.1461,5.1449,5.1464,5.1473,5.1552,5.161,5.1493,5.1498,5.176,5.1766,5.1772,5.1872,0,0,0,0,0,0,5.1347,5.1364,5.1408,5.1419,5.1433,5.1545,5.1459,5.1455,5.1479,5.147,5.1484,5.1482,5.1462,5.1545,5.1557,5.1615,5.1502,5.1754,5.1763,5.177,5.1863,5.1881,5.1896,0,0,0,0,0,5.1342,5.1434,5.1411,5.1425,5.1488,5.1549,5.1556,5.1532,5.1484,5.1527,5.1524,5.1482,5.1603,5.1553,5.1567,5.1628,5.1751,5.176,5.177,5.1856,5.1877,5.1895,0,0,0,0,0,0,5.1429,5.1435,5.1409,5.1509,5.1529,5.1535,5.1588,5.1556,5.1589,5.1579,5.1547,5.155,5.1635,5.164,5.1585,5.1735,5.1668,5.1681,5.1729,5.1749,5.1765,5.1761,5.1506,0,0,0,0,0,5.1461,5.1511,5.1513,5.1601,5.1612,5.1599,5.1625,5.1604,5.1623,5.1631,5.1633,5.1652,5.1694,5.1722,5.1761,5.1864,5.1864,5.1912,5.1929,5.1942,5.1953,5.2004,5.2025,5.1806,5.1806,5.1805,0,0,5.1525,5.1535,5.1568,5.1618,5.1632,5.1682,5.1607,5.1664,5.1701,5.1639,5.1713,5.1716,5.1735,5.1826,5.1866,5.1832,5.2013,5.1954,5.1965,5.1968,5.2016,5.2037,5.2055,5.1812,5.1811,5.181,0,0,5.1668,5.1682,5.1754,5.1769,5.1791,5.1781,5.1799,5.181,5.1809,5.1884,5.1838,5.188,5.1954,5.1968,5.1986,5.2133,5.2094,5.2146,5.223,5.2281,5.2298,5.2313,5.2363,5.2381,5.2157,5.2158,5.2158,0,5.1745,5.1821,5.1796,5.1856,5.1878,5.1826,5.1898,5.1913,5.1946,5.1961,5.1924,5.2013,5.2023,5.2115,5.215,5.2167,5.2184,5.2143,5.2298,5.2313,5.2327,5.2373,5.2393,5.2164,5.2163,5.2162,5.2162,0,5.1913,5.1967,5.2023,5.2056,5.2084,5.2151,5.2133,5.2165,5.2142,5.2136,5.221,5.222,5.2258,5.2279,5.2257,5.2367,5.2345,5.2304,5.2235,5.2354,5.2397,5.2415,5.2172,5.217,5.2168,5.2167,0,0,5.2112,5.2129,5.215,5.2163,5.2182,5.2222,5.2285,5.2323,5.235,5.2374,5.2424,5.2487,5.2448,5.2467,5.2447,5.2492,5.2604,5.2444,5.2444,5.2471,5.2722,5.2751,5.2773,5.258,5.2583,5.2586,5.272,0,5.2251,5.236,5.2338,5.2444,5.2491,5.2442,5.2496,5.2512,5.2508,5.2546,5.2541,5.2585,5.2532,5.2543,5.2586,5.2581,5.2653,5.2572,5.2623,5.2625,5.2617,5.2796,5.2827,5.2953,5.2737,5.274,5.2742,0,5.2428,5.2458,5.2569,5.2578,5.2597,5.2647,5.2679,5.2717,5.2734,5.2727,5.2749,5.2719,5.2779,5.2712,5.2793,5.2738,5.2757,5.2758,5.2763,5.2764,5.2689,5.2799,5.2993,5.3011,5.2769,5.2767,5.2765,0,5.2557,5.2627,5.2701,5.2714,5.2728,5.2763,5.277,5.2784,5.2807,5.2835,5.2849,5.2884,5.2902,5.2929,5.2908,5.2862,5.2991,5.2923,5.2985,5.2986,5.3012,5.301,5.3209,5.3031,5.303,5.303,5.3029,0,5.2713,5.2782,5.2759,5.2804,5.2879,5.2853,5.2927,5.2928,5.294,5.2983,5.2944,5.2985,5.2957,5.2995,5.298,5.3047,5.3056,5.3051,5.3045,5.3053,5.3053,5.3063,5.3053,5.3035,5.3034,5.3033,5.3032,0,5.287,5.2858,5.2935,5.2941,5.2945,5.2999,5.3004,5.3045,5.3038,5.3093,5.3104,5.3093,5.3136,5.3119,5.3164,5.3154,5.3239,5.3223,5.3233,5.3228,5.329,5.3283,5.35,5.3525,5.3333,5.3335,5.3337,0,5.2969,5.302,5.3032,5.3059,5.3069,5.3113,5.3136,5.3112,5.3138,5.3161,5.3198,5.3238,5.3268,5.3339,5.3333,5.3367,5.335,5.3424,5.3355,5.336,5.3348,5.3344,5.3347,5.3437,5.3439,5.3441,5.3442,0,5.3145,5.3136,5.3172,5.3206,5.3236,5.3261,5.3283,5.3307,5.3283,5.3314,5.3358,5.3381,5.3428,5.3466,5.3496,5.3502,5.3468,5.3464,5.348,5.3487,5.3489,5.3485,5.3267,5.3459,5.3457,5.3456,5.3455,5.3454,5.3273,5.3315,5.333,5.3371,5.3385,5.3406,5.3444,5.3442,5.3479,5.3514,5.3498,5.3548,5.3561,5.3598,5.3608,5.3646,5.3617,5.364,5.3645,5.3651,5.3658,5.3486,5.3651,5.3651,5.365,5.365,5.365,0,5.3444,5.3451,5.3489,5.3521,5.3553,5.352,5.3541,5.357,5.3614,5.363,5.3661,5.371,5.3747,5.3745,5.3778,5.3809,5.3794,5.3818,5.3814,5.3815,5.3683,5.3665,5.3829,5.3829,5.3829,5.3829,5.3829,5.3829,5.3537,5.3606,5.3598,5.3673,5.3679,5.3728,5.3743,5.3761,5.3774,5.383,5.3861,5.386,5.3868,5.3902,5.3934,5.3932,5.3945,5.3975,5.3967,5.3843,5.3825,5.3808,5.379,5.3979,5.3979,5.4095,5.4096,5.4097]}]]